Home   Weather   Cape Town   Past weeks
Flag for South Africa

Past Weather in Cape Town, South Africa — Yesterday and Last 2 Weeks

Now
61 °F

Clear.


Feels Like: 61 °F
Forecast: 65 / 56 °F
Wind: 3 mph from West

Location: Cape Town International Airport

Current Time: Oct 20, 2019 at 3:23:25 am

Latest Report: Oct 20, 2019 at 2:00 am


Visibility: 10 mi

Pressure: 29.98 "Hg

Humidity: 88%

Dew Point: 57 °F

Location of Cape TownLocation

Past Weather in Cape Town — Graph

°F

Cape Town Temperature Yesterday

Maximum temperature yesterday: 72 °F (at 1:00 pm)
Minimum temperature yesterday: 63 °F (at 12:00 am)
Average temperature yesterday: 66 °F

High & Low Weather Summary for the Past Weeks

 TemperatureHumidityPressure
High81 °F (Oct 13, 1:00 pm)100% (Oct 5, 5:00 am)30.39 "Hg (Oct 5, 5:00 am)
Low43 °F (Oct 5, 6:26 am)32% (Oct 13, 11:00 am)29.86 "Hg (Oct 14, 4:00 am)
Average63 °F72%30.05 "Hg
* Reported Oct 5 2:00 am — Oct 20 2:00 am, Cape Town. Weather by CustomWeather, © 2019

Note: Actual official high and low records may vary slightly from our data, if they occured in-between our weather recording intervals... More about our weather records

Advertising

Cape Town Weather History for the Previous 24 Hours

Scroll right to see more
 ConditionsComfort  
Time TempWeatherWind HumidityBarometerVisibility
2:00 am
Sun, Oct 20
61 °FClear.3 mph88%29.98 "Hg10 mi
1:00 am63 °FClear.8 mph88%29.98 "Hg10 mi
12:00 am63 °FClear.8 mph88%29.98 "Hg10 mi
11:00 pm
Sat, Oct 19
63 °FClear.9 mph88%29.98 "Hg10 mi
8:00 pm64 °FPassing clouds.15 mph83%29.92 "HgN/A
7:00 pm64 °FPassing clouds.18 mph83%29.92 "HgN/A
6:00 pm68 °FPassing clouds.21 mph73%29.92 "HgN/A
5:00 pm70 °FPassing clouds.21 mph69%29.89 "HgN/A
4:00 pm72 °FPassing clouds.20 mph65%29.86 "HgN/A
3:00 pm72 °FPassing clouds.20 mph65%29.86 "HgN/A
2:00 pm72 °FPassing clouds.17 mph65%29.89 "HgN/A
1:00 pm72 °FPassing clouds.13 mph65%29.89 "HgN/A
12:00 pm68 °FPassing clouds.20 mph73%29.92 "HgN/A
11:00 am68 °FPassing clouds.12 mph73%29.92 "HgN/A
10:00 am66 °FPassing clouds.12 mph78%29.92 "HgN/A
9:00 am66 °FSunny.14 mph78%29.92 "Hg10 mi
8:00 am63 °FSunny.10 mph94%29.89 "Hg10 mi
7:00 am63 °FSunny.9 mph94%29.86 "Hg10 mi
6:00 am63 °FSunny.8 mph94%29.86 "Hg10 mi
5:00 am63 °FClear.12 mph94%29.89 "Hg10 mi
4:00 am63 °FClear.8 mph94%29.89 "Hg10 mi
3:00 am63 °FClear.12 mph88%29.89 "Hg10 mi
Weather by CustomWeather, © 2019

See weather overview